AUA66D LOWW-EPWA

Flight info

Callsign AUA66D
Flight time 0h 51m
Altitude 35000
Route VABG2C/29 LEDVA DCT NETIR DCT LIGDI DCT KURON T709 KOTEK M866 LOGDA LOGDA6U
Aircraft A319/M-SDE3FGHIRWY/LB1

Departure

Time 2026-04-24 19:06
Airport Vienna International Airport (LOWW)

Arrival

Time 2026-04-24 19:57
Airport Warsaw Chopin Airport (EPWA)
Time Latitude Longitude Altitude Speed Heading
2026-04-24 18:54 48.11896 16.56766 609 ft 0 kts 206°
2026-04-24 18:59 48.11912 16.56778 621 ft 4 kts 204°
2026-04-24 18:59 48.11937 16.56793 620 ft 4 kts 195°
2026-04-24 19:00 48.11962 16.56797 608 ft 4 kts 153°
2026-04-24 19:00 48.11971 16.56787 625 ft 0 kts 116°
2026-04-24 19:01 48.11970 16.56789 625 ft 1 kts 116°
2026-04-24 19:02 48.11952 16.56844 619 ft 17 kts 116°
2026-04-24 19:02 48.11894 16.57018 614 ft 19 kts 116°
2026-04-24 19:02 48.11854 16.57203 610 ft 19 kts 101°
2026-04-24 19:02 48.11786 16.57354 614 ft 18 kts 156°
2026-04-24 19:03 48.11651 16.57412 612 ft 22 kts 164°
2026-04-24 19:03 48.11506 16.57462 613 ft 20 kts 182°
2026-04-24 19:03 48.11380 16.57379 618 ft 20 kts 207°
2026-04-24 19:03 48.11256 16.57289 610 ft 20 kts 201°
2026-04-24 19:04 48.11168 16.57401 612 ft 19 kts 115°
2026-04-24 19:04 48.11114 16.57571 610 ft 18 kts 115°
2026-04-24 19:04 48.11045 16.57648 616 ft 9 kts 194°
2026-04-24 19:04 48.10994 16.57611 610 ft 9 kts 209°
2026-04-24 19:05 48.10944 16.57517 613 ft 16 kts 254°
2026-04-24 19:05 48.11002 16.57263 621 ft 52 kts 296°
2026-04-24 19:05 48.11267 16.56454 611 ft 118 kts 296°
2026-04-24 19:05 48.11709 16.55108 642 ft 165 kts 297°
2026-04-24 19:06 48.12205 16.53552 1187 ft 167 kts 291°
2026-04-24 19:06 48.12132 16.51819 1763 ft 180 kts 246°
2026-04-24 19:06 48.11169 16.50435 2086 ft 208 kts 218°
2026-04-24 19:06 48.09909 16.49198 2584 ft 222 kts 217°
2026-04-24 19:07 48.08605 16.47964 3491 ft 222 kts 218°
2026-04-24 19:07 48.07496 16.46400 4290 ft 224 kts 242°
2026-04-24 19:07 48.06802 16.44216 4771 ft 244 kts 251°
2026-04-24 19:07 48.06092 16.41794 5387 ft 261 kts 250°
2026-04-24 19:08 48.05340 16.39294 6319 ft 266 kts 250°
2026-04-24 19:08 48.04570 16.36764 7273 ft 269 kts 250°
2026-04-24 19:08 48.03795 16.34193 8202 ft 273 kts 252°
2026-04-24 19:08 48.03358 16.31456 9109 ft 271 kts 271°
2026-04-24 19:09 48.03428 16.28640 10043 ft 272 kts 278°
2026-04-24 19:09 48.03777 16.25783 10487 ft 290 kts 294°
2026-04-24 19:09 48.04960 16.23255 10769 ft 310 kts 320°
2026-04-24 19:09 48.06936 16.21764 11120 ft 332 kts 347°
2026-04-24 19:10 48.09272 16.21924 11750 ft 348 kts 14°
2026-04-24 19:10 48.11513 16.23420 12518 ft 357 kts 25°
2026-04-24 19:10 48.13691 16.25256 13327 ft 362 kts 28°
2026-04-24 19:10 48.15850 16.27252 14086 ft 367 kts 29°
2026-04-24 19:11 48.18019 16.29312 14787 ft 371 kts 29°
2026-04-24 19:11 48.20212 16.31382 15522 ft 374 kts 29°
2026-04-24 19:11 48.22430 16.33436 16255 ft 377 kts 28°
2026-04-24 19:11 48.24683 16.35478 16969 ft 380 kts 28°
2026-04-24 19:12 48.26964 16.37514 17649 ft 383 kts 28°
2026-04-24 19:12 48.29268 16.39560 18293 ft 386 kts 28°
2026-04-24 19:12 48.31583 16.41618 18842 ft 389 kts 28°
2026-04-24 19:12 48.33924 16.43701 19373 ft 393 kts 28°
2026-04-24 19:13 48.35485 16.45095 19718 ft 395 kts 28°
2026-04-24 19:13 48.38662 16.47941 20396 ft 399 kts 28°
2026-04-24 19:13 48.41051 16.50085 20888 ft 402 kts 28°
2026-04-24 19:13 48.43467 16.52257 21360 ft 405 kts 28°
2026-04-24 19:14 48.45891 16.54442 21835 ft 408 kts 28°
2026-04-24 19:14 48.48338 16.56652 22296 ft 411 kts 28°
2026-04-24 19:14 48.50802 16.58876 22743 ft 414 kts 28°
2026-04-24 19:14 48.53253 16.61091 23172 ft 417 kts 28°
2026-04-24 19:15 48.55784 16.63381 23609 ft 420 kts 28°
2026-04-24 19:15 48.58264 16.65629 23952 ft 423 kts 28°
2026-04-24 19:15 48.60794 16.67917 24325 ft 425 kts 28°
2026-04-24 19:15 48.63335 16.70215 24690 ft 427 kts 28°
2026-04-24 19:16 48.68445 16.74869 25407 ft 431 kts 28°
2026-04-24 19:16 48.70998 16.77268 25771 ft 434 kts 32°
2026-04-24 19:16 48.73346 16.80181 26113 ft 440 kts 41°
2026-04-24 19:17 48.75381 16.83683 26450 ft 446 kts 48°
2026-04-24 19:17 48.77293 16.87399 26770 ft 448 kts 48°
2026-04-24 19:17 48.79220 16.91127 27091 ft 450 kts 48°
2026-04-24 19:17 48.81160 16.94863 27401 ft 452 kts 48°
2026-04-24 19:18 48.83108 16.98615 27725 ft 453 kts 48°
2026-04-24 19:18 48.85060 17.02375 28033 ft 455 kts 48°
2026-04-24 19:18 48.87023 17.06162 28334 ft 457 kts 48°
2026-04-24 19:18 48.88990 17.09970 28631 ft 459 kts 48°
2026-04-24 19:19 48.90962 17.13797 28920 ft 461 kts 48°
2026-04-24 19:19 48.92937 17.17638 29295 ft 461 kts 47°
2026-04-24 19:19 48.94906 17.21479 29704 ft 460 kts 47°
2026-04-24 19:19 48.96867 17.25314 30139 ft 459 kts 47°
2026-04-24 19:20 48.98822 17.29141 30509 ft 457 kts 47°
2026-04-24 19:20 49.00769 17.32959 30896 ft 455 kts 47°
2026-04-24 19:20 49.02709 17.36765 31270 ft 454 kts 47°
2026-04-24 19:20 49.04645 17.40556 31648 ft 452 kts 47°
2026-04-24 19:21 49.06575 17.44334 32031 ft 451 kts 47°
2026-04-24 19:21 49.08499 17.48103 32429 ft 450 kts 47°
2026-04-24 19:21 49.10413 17.51868 32805 ft 448 kts 47°
2026-04-24 19:21 49.12314 17.55619 33189 ft 447 kts 46°
2026-04-24 19:22 49.13574 17.58107 33446 ft 446 kts 46°
2026-04-24 19:22 49.16105 17.63117 33946 ft 445 kts 46°
2026-04-24 19:22 49.17990 17.66858 34278 ft 444 kts 46°
2026-04-24 19:22 49.19869 17.70596 34611 ft 443 kts 46°
2026-04-24 19:23 49.21721 17.74277 34920 ft 442 kts 46°
2026-04-24 19:23 49.23604 17.78008 35026 ft 445 kts 46°
2026-04-24 19:23 49.27439 17.85611 35047 ft 458 kts 46°
2026-04-24 19:24 49.31340 17.93403 35046 ft 463 kts 46°
2026-04-24 19:24 49.35442 18.00923 35048 ft 454 kts 35°
2026-04-24 19:25 49.40216 18.07246 35053 ft 453 kts 35°
2026-04-24 19:25 49.44999 18.13563 35075 ft 453 kts 34°
2026-04-24 19:26 49.49781 18.19873 35080 ft 453 kts 34°
2026-04-24 19:26 49.54559 18.26214 35075 ft 453 kts 34°
2026-04-24 19:27 49.59323 18.32552 35076 ft 452 kts 34°
2026-04-24 19:27 49.64082 18.38904 35061 ft 452 kts 34°
2026-04-24 19:28 49.68834 18.45274 35057 ft 452 kts 35°
2026-04-24 19:28 49.73589 18.51643 35054 ft 452 kts 34°
2026-04-24 19:29 49.80712 18.61226 35051 ft 452 kts 35°
2026-04-24 19:30 49.85449 18.67636 35061 ft 453 kts 34°
2026-04-24 19:30 49.90194 18.74066 35055 ft 453 kts 34°
2026-04-24 19:31 49.94941 18.80506 35054 ft 453 kts 34°
2026-04-24 19:31 49.99690 18.86949 35051 ft 453 kts 34°
2026-04-24 19:32 50.04398 18.93375 35058 ft 454 kts 34°
2026-04-24 19:32 50.09166 18.99922 35044 ft 454 kts 34°
2026-04-24 19:33 50.13905 19.06433 35033 ft 455 kts 34°
2026-04-24 19:33 50.18657 19.12957 35030 ft 455 kts 34°
2026-04-24 19:34 50.23746 19.18618 35062 ft 448 kts 26°
2026-04-24 19:34 50.28945 19.23985 35052 ft 448 kts 27°
2026-04-24 19:35 50.34137 19.29352 35041 ft 448 kts 27°
2026-04-24 19:35 50.39335 19.34730 35040 ft 448 kts 27°
2026-04-24 19:36 50.44499 19.40093 35069 ft 448 kts 26°
2026-04-24 19:36 50.49698 19.45507 35058 ft 448 kts 26°
2026-04-24 19:37 50.54895 19.50929 35052 ft 448 kts 26°
2026-04-24 19:37 50.60082 19.56355 35041 ft 448 kts 27°
2026-04-24 19:38 50.65249 19.61775 34799 ft 441 kts 26°
2026-04-24 19:38 50.67785 19.64447 34314 ft 436 kts 26°
2026-04-24 19:38 50.70291 19.67089 33806 ft 431 kts 26°
2026-04-24 19:38 50.72795 19.69722 33269 ft 434 kts 26°
2026-04-24 19:39 50.75326 19.72378 32719 ft 439 kts 26°
2026-04-24 19:39 50.77867 19.75050 32206 ft 439 kts 27°
2026-04-24 19:39 50.80418 19.77745 31644 ft 442 kts 27°
2026-04-24 19:39 50.82962 19.80445 31117 ft 442 kts 27°
2026-04-24 19:40 50.85525 19.83172 30577 ft 443 kts 27°
2026-04-24 19:40 50.88067 19.85884 30035 ft 441 kts 27°
2026-04-24 19:40 50.90637 19.88624 29410 ft 448 kts 27°
2026-04-24 19:40 50.93238 19.91391 28798 ft 452 kts 27°
2026-04-24 19:41 50.95847 19.94164 28193 ft 451 kts 27°
2026-04-24 19:41 50.98457 19.96942 27607 ft 455 kts 28°
2026-04-24 19:41 51.01093 19.99757 27032 ft 457 kts 28°
2026-04-24 19:41 51.03724 20.02581 26463 ft 455 kts 28°
2026-04-24 19:42 51.06339 20.05400 25890 ft 453 kts 28°
2026-04-24 19:42 51.08922 20.08183 25331 ft 458 kts 28°
2026-04-24 19:42 51.11570 20.11031 24772 ft 460 kts 28°
2026-04-24 19:42 51.14219 20.13881 24226 ft 462 kts 28°
2026-04-24 19:43 51.16938 20.16799 23689 ft 467 kts 28°
2026-04-24 19:43 51.19628 20.19698 23085 ft 466 kts 28°
2026-04-24 19:43 51.22262 20.22547 22466 ft 463 kts 29°
2026-04-24 19:43 51.24914 20.25429 21888 ft 459 kts 29°
2026-04-24 19:44 51.27543 20.28295 21285 ft 456 kts 30°
2026-04-24 19:44 51.30151 20.31137 20714 ft 452 kts 30°
2026-04-24 19:44 51.32741 20.33956 20134 ft 449 kts 30°
2026-04-24 19:44 51.35312 20.36753 19574 ft 445 kts 30°
2026-04-24 19:45 51.37862 20.39533 19023 ft 442 kts 30°
2026-04-24 19:45 51.40393 20.42297 18465 ft 439 kts 31°
2026-04-24 19:45 51.42906 20.45042 17844 ft 435 kts 31°
2026-04-24 19:45 51.45398 20.47765 17231 ft 432 kts 31°
2026-04-24 19:46 51.47868 20.50472 16610 ft 428 kts 31°
2026-04-24 19:46 51.50318 20.53163 16008 ft 425 kts 31°
2026-04-24 19:46 51.52749 20.55837 15415 ft 422 kts 31°
2026-04-24 19:46 51.55160 20.58493 14823 ft 419 kts 32°
2026-04-24 19:47 51.56742 20.60238 14440 ft 417 kts 32°
2026-04-24 19:47 51.59122 20.62868 13874 ft 413 kts 32°
2026-04-24 19:47 51.61485 20.65477 13238 ft 410 kts 32°
2026-04-24 19:47 51.63827 20.68068 12620 ft 406 kts 32°
2026-04-24 19:48 51.66141 20.70633 12071 ft 400 kts 32°
2026-04-24 19:48 51.68403 20.73142 11662 ft 389 kts 32°
2026-04-24 19:48 51.72739 20.77968 10865 ft 368 kts 32°
2026-04-24 19:49 51.76828 20.82524 10085 ft 343 kts 32°
2026-04-24 19:49 51.80572 20.86700 9205 ft 314 kts 32°
2026-04-24 19:50 51.85651 20.92390 7939 ft 279 kts 32°
2026-04-24 19:50 51.87220 20.94149 7523 ft 269 kts 31°
2026-04-24 19:51 51.90190 20.97485 6777 ft 250 kts 31°
2026-04-24 19:51 51.91594 20.99065 6403 ft 242 kts 30°
2026-04-24 19:52 51.94269 21.02072 5624 ft 227 kts 30°
2026-04-24 19:52 51.95562 21.03524 5107 ft 226 kts 31°
2026-04-24 19:52 51.96851 21.04974 4597 ft 225 kts 31°
2026-04-24 19:52 51.98139 21.06425 4083 ft 225 kts 31°
2026-04-24 19:53 51.99428 21.07878 3576 ft 227 kts 31°
2026-04-24 19:53 52.00815 21.09025 3093 ft 221 kts
2026-04-24 19:53 52.03462 21.08132 2987 ft 183 kts 330°
2026-04-24 19:54 52.04565 21.07174 2801 ft 181 kts 330°
2026-04-24 19:54 52.05661 21.06222 2565 ft 176 kts 330°
2026-04-24 19:54 52.06736 21.05287 2330 ft 174 kts 329°
2026-04-24 19:54 52.07774 21.04386 2095 ft 163 kts 327°
2026-04-24 19:55 52.08427 21.03820 1963 ft 150 kts 327°
2026-04-24 19:55 52.09538 21.02857 1708 ft 126 kts 325°
2026-04-24 19:55 52.10302 21.02190 1533 ft 128 kts 329°
2026-04-24 19:55 52.11088 21.01503 1371 ft 129 kts 329°
2026-04-24 19:56 52.11879 21.00813 1199 ft 129 kts 329°
2026-04-24 19:56 52.12672 21.00120 1022 ft 130 kts 329°
2026-04-24 19:56 52.13472 20.99422 846 ft 131 kts 329°
2026-04-24 19:56 52.14278 20.98719 676 ft 132 kts 328°
2026-04-24 19:57 52.15089 20.98017 484 ft 132 kts 328°
2026-04-24 19:57 52.15891 20.97321 352 ft 125 kts 330°
2026-04-24 19:57 52.16555 20.96726 339 ft 91 kts 331°
2026-04-24 19:57 52.16864 20.96521 337 ft 31 kts 353°
2026-04-24 19:58 52.17014 20.96514 334 ft 9 kts
2026-04-24 19:58 52.17054 20.96524 338 ft 4 kts 17°
2026-04-24 19:58 52.17079 20.96549 338 ft 4 kts 41°
2026-04-24 19:58 52.17097 20.96585 339 ft 5 kts 57°
2026-04-24 19:59 52.17118 20.96648 336 ft 8 kts 62°
2026-04-24 19:59 52.17159 20.96780 335 ft 15 kts 71°
2026-04-24 19:59 52.17097 20.96894 338 ft 15 kts 152°
2026-04-24 19:59 52.17005 20.96972 337 ft 15 kts 152°
2026-04-24 20:00 52.16990 20.97097 335 ft 10 kts 70°
2026-04-24 20:00 52.16998 20.97133 336 ft 1 kts 70°
2026-04-24 20:00 52.16998 20.97134 336 ft 0 kts 70°